User: anonymous   Login
Location: Ostrava
(49.8330°N, 18.2830°E)
Time: 09:16:21
(UTC+01:00)
Language:

Explorer 7 - Orbit

View from above orbital plane
View from above orbital plane
View from above satellite
View from above satellite

Ground track
Ground track

The orbit data is extracted from the following two-line orbital elements,

1 00022U 59009A   14331.14377701  .00007195  00000-0  61027-3 0   913
2 00022 050.2833 245.3241 0152128 080.5976 281.2131 14.90360386921945
Epoch (UTC): 27 November 2014 03:27:02
Eccentricity: 0.0152128
inclination: 50.2833°
perigee height: 491 km
apogee height: 703 km
right ascension of ascending node: 245.3241°
argument of perigee: 80.5976°
revolutions per day: 14.90360386
mean anomaly at epoch: 281.2131°
orbit number at epoch: 92194

The dashed part of the orbit path shows where the satellite is in the earth's shadow,  

DLR